Regional Weather Roundup
Issued by NWS Upton, NY

Current Version | Previous Version | Graphics & Text | Print | Product List | Glossary Off
Versions: 1 2 3 4 5 6 7 8 9 10 11 12 13 14 15 16 17 18 19 20 21 22 23 24 25 26 27 28 29 30 31 32 33 34 35 36 37 38 39 40 41 42 43 44 45 46 47 48 49 50

000
ASUS41 KOKX 300004
RWROKX

REGIONAL WEATHER ROUNDUP
NATIONAL WEATHER SERVICE NEW YORK NY
800 PM EDT SAT AUG 29 2015

NOTE: "FAIR" INDICATES FEW OR NO CLOUDS BELOW 12,000 FEET WITH NO
SIGNIFICANT WEATHER AND/OR OBSTRUCTIONS TO VISIBILITY.

NYZ071-072-176-178-NJZ106-104-300100-
NEW YORK CITY METRO AREA


CITY           SKY/WX    TMP DP  RH WIND       PRES   REMARKS
CENTRAL PARK   CLEAR     77  58  51 CALM      30.13S
LAGUARDIA APRT PTCLDY    77  59  53 S14G21    30.10S
KENNEDY INTL   MOCLDY    76  63  64 S15       30.12S
NEWARK/LIBERTY PTCLDY    78  60  53 S6        30.10S
BRNX BOT. GARD   N/A     75  59  57 S14       30.11S
TETERBORO      CLEAR     77  58  51 S9        30.09S
$$

NYZ177-179-078>081-300100-
LONG ISLAND NEW YORK

CITY           SKY/WX    TMP DP  RH WIND       PRES   REMARKS
FARMINGDALE    CLEAR     76  62  62 S9        30.12S
ISLIP          MOCLDY    74  62  66 SW9       30.10S
SHIRLEY        CLEAR     74  63  68 S6        30.12S
WESTHAMPTON    CLEAR     74  62  66 S5        30.13S
MONTAUK POINT    N/A     73  65  75 SW6       30.13S
$$

NYZ052-065-067-300100-
HUDSON VALLEY

CITY           SKY/WX    TMP DP  RH WIND       PRES   REMARKS
WHITE PLAINS   CLEAR     73  60  63 S6        30.11R
NEWBURGH       CLEAR     79  61  53 VRB5      30.10S
MONTGOMERY     CLEAR     71  64  78 CALM      30.09S
POUGHKEEPSIE   CLEAR     73  60  63 CALM      30.07S
ALBANY         MOCLDY    74  60  61 SE3       30.08R
$$

NJZ001-105-106-008-010-013-015-019>022-104-300100-
NEW JERSEY

CITY           SKY/WX    TMP DP  RH WIND       PRES   REMARKS
NEWARK/LIBERTY PTCLDY    78  60  53 S6        30.10S
TETERBORO      CLEAR     77  58  51 S9        30.09S
CALDWELL       CLEAR     78  60  53 S3        30.10R
MORRISTOWN     NOT AVBL
SOMERVILLE     CLEAR     74  62  66 CALM      30.07S
SUSSEX         CLEAR     72  63  73 CALM      30.10S
ANDOVER          N/A     70  65  84 CALM      30.11S
TRENTON        CLEAR     79  62  56 CALM      30.09S
MILLVILLE      MOCLDY    74  62  66 S3        30.12F
ATLANTIC CITY  PTCLDY    75  62  64 S7        30.12F
WRIGHTSTOWN    PTCLDY    75  61  62 S7        30.08S
TOMS RIVER     PTCLDY    73  61  64 S5        30.12S
BELMAR         PTCLDY    75  57  53 S5        30.12S
$$

PAZ047>061-062-071-300100-
EASTERN PENNSYLVANIA

CITY           SKY/WX    TMP DP  RH WIND       PRES   REMARKS
PHILADELPHIA   PTCLDY    81  61  50 SW14      30.11R
ALLENTOWN      PTCLDY    76  63  64 SW6       30.10S
SCRANTON       PTCLDY    75  60  59 CALM      30.10S
$$

CTZ002-004>006-009-010-012-RIZ004-006-007-MAZ004-011-015-300100-
SOUTHERN NEW ENGLAND
 IN CT

CITY           SKY/WX    TMP DP  RH WIND       PRES   REMARKS
BRADLEY INTL   PTCLDY    72  60  66 CALM      30.08S
HARTFORD       CLEAR     73  61  65 CALM      30.09R
DANBURY        CLEAR     74  58  57 S7        30.12R
WTRBRY/OXFORD  CLEAR     72  55  56 S6        30.13F
BRIDGEPORT     CLEAR     77  62  59 S14       30.10S
MERIDEN        CLEAR     71  58  63 CALM      30.10R
NEW HAVEN      PTCLDY    74  64  71 SW7       30.11R
CHESTER        NOT AVBL
GROTON         CLEAR     72  65  78 S9        30.10S
WILLIMANTIC    CLEAR     74  59  59 SW3       30.10S

 IN RI

CITY           SKY/WX    TMP DP  RH WIND       PRES   REMARKS
PROVIDENCE     PTCLDY    72  60  66 SW7       30.10S
BLOCK ISLAND   CLEAR     72  64  78 SW10      30.12S
WESTERLY       CLEAR     73  62  68 SW6       30.12R

 IN MA

CITY           SKY/WX    TMP DP  RH WIND       PRES   REMARKS
BOSTON         MOCLDY    77  54  44 W7        30.09R
WORCESTER      CLEAR     68  56  65 W7        30.13R
WESTFIELD      CLEAR     69  61  75 CALM      30.09S
PROVINCETOWN   PTCLDY    72  57  60 SW13      30.10R
NANTUCKET      PTCLDY    71  65  81 SW10      30.12S
$$

ANZ330-335-338-340-345-350-353-355-300100-
COASTAL MARINE OBSERVATIONS


STATION/POSITION TIME  SKY/WX   TEMP    WIND        PRES    VSBY  WAVE
                                AIR SEA DIR/SP/G                  HT/PER
                 (UTC)          (F)     (DEG/KT/KT) (MB)    (MI)  (FT/S)
NY HARB ENTRANCE 2250            76 76  190/ 16/ 17 1019.2          3/11
4S FIRE IS       NOT AVBL
20S FIRE ISLAND  2250            76 76  190/ 12/ 14 1019.7          2/11
GREAT SOUTH BAY  2300            76 79  220/ 12/ 16   N/A
23SW MTP         2350            74 74  210/ 12/ 14 1019.6          3/10
HUDSON CANYON    NOT AVBL
KINGS POINT      NOT AVBL
EXECUTION ROCKS  2300            77     190/ 12/ 16   N/A
CENTRAL LI SOUND NOT AVBL
EASTERN LI SOUND 2300            76 71  200/ 12/ 14   N/A
ROBBINS REEF     NOT AVBL
$$


>>>>>>>>>>>>>>>>>>>>>>>>>>>> KEY <<<<<<<<<<<<<<<<<<<<<<<<<<<
>                                                          <
>     SKY/WX - SKY CONDITION/PRESENT WEATHER               <
>     TMP    - TEMPERATURE IN FAHRENHEIT                   <
>     DP     - DEWPOINT IN FAHRENHEIT                      <
>     RH     - RELATIVE HUMIDITY IN PERCENT                <
>     WIND   - DIRECTION AND SPEED IN MPH                  <
>     PRES   - MEAN SEA LEVEL PRESSURE IN INCHES OF HG     <
>     WCI    - WIND CHILL INDEX                            <
>     VSB    - VISIBILITY IN MILES                         <
>     HX     - HEAT INDEX                                  <
>     TC     - TEMPERATURE IN CELSIUS                      <
>     VRB    - VARIABLE WIND DIRECTION                     <
>                                                          <
>>>>>>>>>>>>>>>>>>>>>>>>>>>> KEY <<<<<<<<<<<<<<<<<<<<<<<<<<<





USA.gov is the U.S. government's official web portal to all federal, state and local government web resources and services.